Oberbuscherhof, Germany

5:40 PM CET on January 21, 2017 (GMT +0100)
Dusseldorf

Weather History for EDDL - February, 2013

Change the Weather History Date:

Monday, February 4, 2013

  Actual Average Record
Temperature  
Mean Temperature 44 °F -  
Max Temperature 50 °F 44 °F 62 °F (2004)
Min Temperature 38 °F 33 °F 8 °F (2012)
Degree Days  
Heating Degree Days 21    
Moisture  
Dew Point 40 °F    
Average Humidity 81    
Maximum Humidity 100    
Minimum Humidity 50    
Precipitation  
Precipitation 0.02 in - - ()
Sea Level Pressure  
Sea Level Pressure 29.81 in    
Wind  
Wind Speed 13 mph ()    
Max Wind Speed 20 mph    
Max Gust Speed 29 mph    
Visibility 5.6 miles    
Events Rain    
Averages and records for this station are not official NWS values.
T = Trace of Precipitation, MM = Missing Value Source: Averaged Metar Reports

Daily Weather History Graph

Daily Weather History Graph

Search for Another Location

Airport or City:

Trip Planner

Search our weather history database for the weather conditions in past years. The results will help you decide how hot, cold, wet, or windy it might be!

Date:

Astronomy

Feb. 04, 2013 Rise Set
Actual Time 8:05 AM CET 5:28 PM CET
Civil Twilight 7:30 AM CET 6:04 PM CET
Nautical Twilight 6:50 AM CET 6:44 PM CET
Astronomical Twilight 6:11 AM CET 7:22 PM CET
Moon 2:30 AM CET (2/4) 11:30 AM CET (2/4)
Length of Visible Light 10h 34m
Length of Day
9h 23m
Last Quarter, 40% of the Moon is Illuminated
Feb 4
Last Quarter
Feb 10
New
Feb 17
First Quarter
Feb 25
Full
Mar 4
Last Quarter

Hourly Weather History & Observations

Time (CET) Temp. Windchill Dew Point Humidity Pressure Visibility Wind Dir Wind Speed Gust Speed Precip Events Conditions
12:00 AM 42 °F - 41 °F 93% 29.85 in 5 mi WSW 17.9 mph - - Rain Light Rain
12:20 AM 42.8 °F 35.1 °F 39.2 °F 87% 29.83 in 5.0 mi WSW 16.1 mph - N/A Rain Light Rain
12:50 AM 42.8 °F 34.5 °F 41.0 °F 93% 29.83 in 5.0 mi WSW 18.4 mph - N/A Rain Light Rain
1:00 AM 42 °F - 41 °F 95% 29.86 in 5 mi WSW 17.9 mph - - Rain Light Rain
1:20 AM 42.8 °F 34.3 °F 41.0 °F 93% 29.83 in 5.0 mi WSW 19.6 mph - N/A Rain Light Rain
1:50 AM 42.8 °F 35.4 °F 41.0 °F 93% 29.83 in 5.0 mi WSW 15.0 mph - N/A   Mostly Cloudy
2:00 AM 42 °F - 41 °F 97% 29.85 in 5 mi WSW 15.7 mph - - Rain Light Rain
2:20 AM 42.8 °F 35.4 °F 41.0 °F 93% 29.83 in 5.0 mi WSW 15.0 mph - N/A   Mostly Cloudy
2:50 AM 42.8 °F 36.2 °F 41.0 °F 93% 29.83 in 5.0 mi WSW 12.7 mph - N/A   Overcast
3:00 AM 43 °F - 42 °F 96% 29.84 in 5 mi WSW 13.4 mph - - Rain Light Rain
3:20 AM 42.8 °F 36.2 °F 42.8 °F 100% 29.80 in 5.0 mi SW 12.7 mph - N/A Rain Light Rain
3:50 AM 42.8 °F 36.6 °F 41.0 °F 93% 29.80 in 4.3 mi SW 11.5 mph - N/A Rain Rain
4:20 AM 42.8 °F 35.8 °F 41.0 °F 93% 29.80 in 4.3 mi SW 13.8 mph - N/A Rain Rain
4:50 AM 42.8 °F 36.6 °F 41.0 °F 93% 29.77 in 4.3 mi SW 11.5 mph - N/A Rain Rain
5:00 AM 43 °F - 42 °F 97% 29.80 in 4 mi SW 11.2 mph - - Rain Heavy Rain
5:20 AM 42.8 °F 36.2 °F 42.8 °F 100% 29.77 in 4.3 mi SW 12.7 mph - N/A Rain Rain
5:50 AM 44.6 °F 38.1 °F 42.8 °F 93% 29.77 in 4.3 mi WSW 13.8 mph - N/A   Light Drizzle
6:00 AM 44 °F - 44 °F 99% 29.79 in 4 mi WSW 13.4 mph - - Rain Light Drizzle
6:20 AM 44.6 °F 37.4 °F 42.8 °F 93% 29.77 in 3.7 mi WSW 16.1 mph - N/A   Light Drizzle
6:50 AM 44.6 °F 38.1 °F 42.8 °F 93% 29.77 in 4.3 mi WSW 13.8 mph - N/A   Overcast
7:00 AM 45 °F - 44 °F 97% 29.78 in 4 mi WSW 13.4 mph - - Rain Light Drizzle
7:20 AM 46.4 °F 40.1 °F 42.8 °F 87% 29.77 in 5.0 mi WSW 15.0 mph - N/A   Overcast
7:50 AM 46.4 °F 40.1 °F 44.6 °F 93% 29.77 in 3.7 mi WSW 15.0 mph - N/A Rain Rain
8:00 AM 46 °F - 44 °F 91% 29.78 in 4 mi WSW 13.4 mph - - Rain Light Rain
8:20 AM 46.4 °F 40.4 °F 44.6 °F 93% 29.77 in 3.7 mi WSW 13.8 mph - N/A Rain Rain
8:50 AM 46.4 °F 40.4 °F 44.6 °F 93% 29.77 in 5.6 mi WSW 13.8 mph - N/A Rain Light Rain
9:00 AM 46 °F - 45 °F 94% 29.78 in 6 mi WSW 13.4 mph - - Rain Light Rain
9:20 AM 46.4 °F 40.1 °F 44.6 °F 93% 29.77 in 5.6 mi WSW 15.0 mph - N/A Rain Light Rain
9:50 AM 46.4 °F 40.1 °F 44.6 °F 93% 29.77 in 3.1 mi WSW 15.0 mph - N/A Rain Rain
10:20 AM 46.4 °F 39.5 °F 44.6 °F 93% 29.77 in 2.5 mi WSW 17.3 mph - N/A Rain Rain
12:00 PM 47 °F - 46 °F 94% 29.80 in 6 mi WSW 15.7 mph - - Rain Light Rain
12:20 PM 48.2 °F - 46.4 °F 93% 29.80 in 6.2 mi WSW 16.1 mph - N/A Rain Light Rain
12:50 PM 48.2 °F - 46.4 °F 93% 29.80 in 6.2 mi West 16.1 mph - N/A Rain Light Rain
1:00 PM 48 °F - 46 °F 89% 29.80 in 7 mi West 15.7 mph - - Rain Light Rain
1:20 PM 48.2 °F - 44.6 °F 87% 29.80 in 6.2 mi West 19.6 mph - N/A Rain Light Rain Showers
1:50 PM 50.0 °F - 42.8 °F 76% 29.80 in 6.2 mi West 17.3 mph 28.8 mph N/A   Scattered Clouds
2:00 PM 50 °F - 42 °F 67% 29.81 in 12 mi West 17.9 mph - - Rain Light Rain
2:20 PM 48.2 °F - 35.6 °F 62% 29.80 in 6.2 mi WNW 13.8 mph - N/A   Mostly Cloudy
2:50 PM 48.2 °F - 35.6 °F 62% 29.80 in 6.2 mi WNW 9.2 mph - N/A   Mostly Cloudy
3:00 PM 49 °F - 36 °F 50% 29.82 in 22 mi WNW 8.9 mph - -   Mostly Cloudy
3:20 PM 48.2 °F - 35.6 °F 62% 29.80 in 6.2 mi NW 9.2 mph - N/A   Mostly Cloudy
3:50 PM 48.2 °F - 33.8 °F 58% 29.80 in 6.2 mi WNW 9.2 mph - N/A Rain Light Rain
4:20 PM 48.2 °F - 35.6 °F 62% 29.83 in 6.2 mi West 10.4 mph - N/A   Mostly Cloudy
4:50 PM 46.4 °F 41.5 °F 39.2 °F 76% 29.83 in 6.2 mi WSW 10.4 mph - N/A   Mostly Cloudy
5:00 PM 47 °F - 38 °F 63% 29.83 in 19 mi WSW 11.2 mph - -   Mostly Cloudy
5:20 PM 46.4 °F 41.5 °F 35.6 °F 66% 29.83 in 6.2 mi West 10.4 mph 23.0 mph N/A   Scattered Clouds
5:50 PM 46.4 °F 41.9 °F 33.8 °F 62% 29.86 in 6.2 mi West 9.2 mph - N/A   Partly Cloudy
6:00 PM 46 °F - 34 °F 52% 29.86 in 25 mi West 8.9 mph - -   Scattered Clouds
6:20 PM 44.6 °F 38.8 °F 33.8 °F 66% 29.86 in 6.2 mi West 11.5 mph - N/A   Partly Cloudy
6:50 PM 44.6 °F 39.2 °F 35.6 °F 71% 29.86 in 6.2 mi WSW 10.4 mph - N/A   Partly Cloudy
7:00 PM 43 °F - 35 °F 64% 29.86 in 22 mi WSW 11.2 mph - -   Partly Cloudy
7:20 PM 42.8 °F 37.0 °F 35.6 °F 76% 29.86 in - WSW 10.4 mph - N/A   Clear
7:50 PM 42.8 °F 37.5 °F 35.6 °F 76% 29.86 in - WSW 9.2 mph - N/A   Clear
8:00 PM 43 °F - 36 °F 67% 29.86 in 22 mi WSW 8.9 mph - -   Mostly Cloudy
8:20 PM 42.8 °F 37.0 °F 35.6 °F 76% 29.83 in - SW 10.4 mph - N/A   Clear
8:50 PM 44.6 °F 38.1 °F 33.8 °F 66% 29.83 in - WSW 13.8 mph - N/A   Clear
9:00 PM 44 °F - 35 °F 61% 29.84 in 22 mi WSW 13.4 mph - -   Mostly Cloudy
9:20 PM 44.6 °F 38.4 °F 33.8 °F 66% 29.83 in - WSW 12.7 mph - N/A   Clear
9:50 PM 44.6 °F 37.8 °F 33.8 °F 66% 29.83 in - WSW 15.0 mph - N/A   Clear
10:20 PM 44.6 °F 37.4 °F 33.8 °F 66% 29.80 in - WSW 16.1 mph - N/A   Clear
10:50 PM 42.8 °F 35.1 °F 35.6 °F 76% 29.80 in - SW 16.1 mph - N/A   Clear
11:00 PM 43 °F - 36 °F 67% 29.81 in 22 mi SW 15.7 mph - -   Partly Cloudy
11:20 PM 42.8 °F 35.8 °F 35.6 °F 76% 29.80 in - SW 13.8 mph - N/A   Clear
11:50 PM 42.8 °F 35.8 °F 35.6 °F 76% 29.77 in - SW 13.8 mph - N/A   Clear